Location: Carthage
(33.8834°N, 106.6595°W)
Time: 10:38:02
(UTC+00:00)

Cosmos 1937 Rocket - Pass Details

Date: 13 February 2026
Orbit: 741 x 776 km, 74.0° (Epoch: 10 March)

Event Time Altitude Azimuth Distance (km) Brightness Sun altitude
Rises 13:18:59 0° 190° (S) 3,166 6.7 -7.7°
Reaches altitude 10° 13:21:19 10° 188° (S) 2,249 6.0 -7.2°
Maximum altitude 13:26:23 72° 105° (ESE) 789 3.8 -6.2°
Drops below altitude 10° 13:31:32 10° 22° (NNE) 2,282 6.1 -5.2°
Sets 13:33:55 0° 20° (NNE) 3,217 6.8 -4.7°
